• In Belarus
  • List of Countries
  • For 7 days
  • Water Temperature
  • Weather Map
  • Weather Widgets
  • user-avatar
    Login

    Hourly Weather Yerevan

    Today, 16 September, Monday

    Time Temperature Precipitation Wind Pressure Humidity
    00:00 +20°C° 0.2 mm 1 mps 692 mmHg 68%
    01:00 +20°C° 0.4 mm 1 mps 692 mmHg 70%
    02:00 +19°C° 0.4 mm 1 mps 692 mmHg 72%
    03:00 +19°C° 0 mm 1 mps 692 mmHg 70%
    04:00 +19°C° 0.2 mm 1 mps 692 mmHg 71%
    05:00 +19°C° 0.2 mm 1 mps 692 mmHg 72%
    06:00 +18°C° 0.2 mm 1 mps 692 mmHg 74%
    07:00 +20°C° 0 mm 1 mps 692 mmHg 66%
    08:00 +22°C° 0 mm 1 mps 691 mmHg 58%
    09:00 +24°C° 0 mm 1 mps 691 mmHg 50%
    10:00 +26°C° 0 mm 1 mps 691 mmHg 46%
    11:00 +27°C° 0 mm 2 mps 691 mmHg 42%
    12:00 +29°C° 0 mm 3 mps 691 mmHg 38%
    13:00 +30°C° 0 mm 3 mps 690 mmHg 35%
    14:00 +30°C° 0 mm 3 mps 690 mmHg 32%
    15:00 +31°C° 0 mm 3 mps 690 mmHg 29%
    16:00 +30°C° 0 mm 2 mps 690 mmHg 33%
    17:00 +28°C° 0 mm 2 mps 690 mmHg 36%
    18:00 +27°C° 0 mm 1 mps 689 mmHg 40%
    19:00 +26°C° 0 mm 1 mps 690 mmHg 43%
    20:00 +25°C° 0 mm 1 mps 690 mmHg 45%
    21:00 +24°C° 0 mm 2 mps 690 mmHg 48%
    22:00 +23°C° 0 mm 2 mps 690 mmHg 49%
    23:00 +23°C° 0 mm 1 mps 690 mmHg 50%

    Tomorrow, 17 September, Tuesday

    Time Temperature Precipitation Wind Pressure Humidity
    00:00 +22°C° 0 mm 1 mps 690 mmHg 51%
    01:00 +22°C° 0 mm 1 mps 690 mmHg 51%
    02:00 +21°C° 0 mm 1 mps 690 mmHg 51%
    03:00 +21°C° 0 mm 1 mps 689 mmHg 51%
    04:00 +20°C° 0 mm 1 mps 689 mmHg 52%
    05:00 +20°C° 0 mm 1 mps 689 mmHg 53%
    06:00 +18°C° 0 mm 0 mps 689 mmHg 54%
    07:00 +22°C° 0 mm 1 mps 689 mmHg 47%
    08:00 +24°C° 0 mm 1 mps 690 mmHg 41%
    09:00 +27°C° 0 mm 1 mps 690 mmHg 34%
    10:00 +28°C° 0 mm 1 mps 690 mmHg 30%
    11:00 +29°C° 0 mm 2 mps 690 mmHg 27%
    12:00 +31°C° 0 mm 2 mps 690 mmHg 23%
    13:00 +31°C° 0 mm 2 mps 689 mmHg 21%
    14:00 +32°C° 0 mm 2 mps 689 mmHg 20%
    15:00 +34°C° 0 mm 2 mps 689 mmHg 18%
    16:00 +31°C° 0 mm 2 mps 689 mmHg 20%
    17:00 +30°C° 0 mm 2 mps 688 mmHg 23%
    18:00 +29°C° 0 mm 2 mps 688 mmHg 25%
    19:00 +27°C° 0 mm 2 mps 689 mmHg 29%
    20:00 +26°C° 0 mm 3 mps 689 mmHg 34%
    21:00 +23°C° 0 mm 4 mps 690 mmHg 38%
    22:00 +24°C° 0 mm 3 mps 690 mmHg 40%
    23:00 +22°C° 0 mm 3 mps 690 mmHg 42%

    Day after tomorrow, 18 September, Wednesday

    Time Temperature Precipitation Wind Pressure Humidity
    00:00 +21°C° 0 mm 2 mps 690 mmHg 44%
    01:00 +21°C° 0 mm 2 mps 690 mmHg 45%
    02:00 +20°C° 0 mm 2 mps 690 mmHg 46%
    03:00 +19°C° 0 mm 2 mps 690 mmHg 47%
    04:00 +19°C° 0 mm 2 mps 690 mmHg 48%
    05:00 +19°C° 0 mm 2 mps 691 mmHg 49%
    06:00 +18°C° 0 mm 2 mps 691 mmHg 51%
    07:00 +21°C° 0 mm 2 mps 691 mmHg 45%
    08:00 +24°C° 0 mm 2 mps 692 mmHg 40%
    09:00 +26°C° 0 mm 2 mps 693 mmHg 35%
    10:00 +27°C° 0 mm 1 mps 693 mmHg 32%
    11:00 +28°C° 0 mm 1 mps 693 mmHg 28%
    12:00 +30°C° 0 mm 1 mps 693 mmHg 25%
    13:00 +30°C° 0 mm 1 mps 692 mmHg 24%
    14:00 +31°C° 0 mm 1 mps 692 mmHg 22%
    15:00 +31°C° 0 mm 1 mps 692 mmHg 21%
    16:00 +30°C° 0 mm 1 mps 692 mmHg 24%
    17:00 +28°C° 0 mm 1 mps 691 mmHg 27%
    18:00 +27°C° 0 mm 1 mps 691 mmHg 30%
    19:00 +26°C° 0 mm 1 mps 691 mmHg 30%
    20:00 +25°C° 0 mm 2 mps 691 mmHg 30%
    21:00 +24°C° 0 mm 2 mps 692 mmHg 31%
    22:00 +24°C° 0 mm 1 mps 692 mmHg 32%
    23:00 +23°C° 0 mm 1 mps 691 mmHg 33%

    19 September, Thursday

    Time Temperature Precipitation Wind Pressure Humidity
    00:00 +22°C° 0 mm 1 mps 691 mmHg 34%
    01:00 +22°C° 0 mm 1 mps 691 mmHg 35%
    02:00 +21°C° 0 mm 1 mps 691 mmHg 36%
    03:00 +21°C° 0 mm 1 mps 691 mmHg 37%
    04:00 +20°C° 0 mm 1 mps 691 mmHg 38%
    05:00 +20°C° 0 mm 1 mps 691 mmHg 40%
    06:00 +20°C° 0 mm 1 mps 690 mmHg 42%
    07:00 +21°C° 0 mm 2 mps 691 mmHg 37%
    08:00 +25°C° 0 mm 2 mps 691 mmHg 32%
    09:00 +27°C° 0 mm 2 mps 692 mmHg 27%
    10:00 +29°C° 0 mm 2 mps 692 mmHg 25%
    11:00 +30°C° 0 mm 1 mps 692 mmHg 22%
    12:00 +31°C° 0 mm 1 mps 692 mmHg 20%
    13:00 +32°C° 0 mm 1 mps 691 mmHg 19%
    14:00 +33°C° 0 mm 1 mps 691 mmHg 17%
    15:00 +33°C° 0 mm 1 mps 691 mmHg 16%
    16:00 +31°C° 0 mm 1 mps 691 mmHg 19%
    17:00 +29°C° 0 mm 1 mps 690 mmHg 22%
    18:00 +28°C° 0 mm 1 mps 690 mmHg 25%
    19:00 +27°C° 0 mm 2 mps 690 mmHg 26%
    20:00 +26°C° 0 mm 2 mps 691 mmHg 26%
    21:00 +25°C° 0 mm 3 mps 691 mmHg 27%
    22:00 +24°C° 0 mm 2 mps 691 mmHg 30%
    23:00 +23°C° 0 mm 2 mps 691 mmHg 33%

    20 September, Friday

    Time Temperature Precipitation Wind Pressure Humidity
    00:00 +21°C° 0 mm 2 mps 690 mmHg 36%
    01:00 +21°C° 0 mm 2 mps 690 mmHg 38%
    02:00 +20°C° 0 mm 2 mps 690 mmHg 40%
    03:00 +19°C° 0 mm 2 mps 690 mmHg 42%
    04:00 +20°C° 0 mm 1 mps 689 mmHg 44%
    05:00 +19°C° 0 mm 1 mps 689 mmHg 46%
    06:00 +19°C° 0 mm 1 mps 689 mmHg 47%
    07:00 +21°C° 0 mm 1 mps 689 mmHg 41%
    08:00 +24°C° 0 mm 1 mps 689 mmHg 35%
    09:00 +26°C° 0 mm 1 mps 690 mmHg 29%
    10:00 +28°C° 0 mm 1 mps 689 mmHg 27%
    11:00 +29°C° 0 mm 2 mps 689 mmHg 24%
    12:00 +31°C° 0 mm 2 mps 689 mmHg 21%
    13:00 +32°C° 0 mm 2 mps 688 mmHg 19%
    14:00 +34°C° 0 mm 2 mps 688 mmHg 17%
    15:00 +34°C° 0 mm 2 mps 687 mmHg 16%
    16:00 +32°C° 0 mm 2 mps 687 mmHg 18%
    17:00 +30°C° 0 mm 2 mps 686 mmHg 20%
    18:00 +28°C° 0 mm 2 mps 686 mmHg 22%
    19:00 +27°C° 0 mm 2 mps 686 mmHg 23%
    20:00 +26°C° 0 mm 1 mps 686 mmHg 24%
    21:00 +25°C° 0 mm 1 mps 686 mmHg 25%
    22:00 +25°C° 0 mm 1 mps 686 mmHg 26%
    23:00 +24°C° 0 mm 1 mps 686 mmHg 27%

    21 September, Saturday

    Time Temperature Precipitation Wind Pressure Humidity
    00:00 +24°C° 0 mm 1 mps 686 mmHg 28%
    01:00 +23°C° 0 mm 1 mps 685 mmHg 30%
    02:00 +23°C° 0 mm 1 mps 685 mmHg 31%
    03:00 +22°C° 0 mm 1 mps 685 mmHg 33%
    04:00 +21°C° 0 mm 2 mps 685 mmHg 38%
    05:00 +20°C° 0 mm 3 mps 685 mmHg 43%
    06:00 +19°C° 0 mm 4 mps 685 mmHg 48%
    07:00 +21°C° 0 mm 4 mps 685 mmHg 43%
    08:00 +23°C° 0 mm 4 mps 686 mmHg 38%
    09:00 +26°C° 0 mm 5 mps 686 mmHg 33%
    10:00 +28°C° 0 mm 5 mps 686 mmHg 29%
    11:00 +29°C° 0 mm 5 mps 686 mmHg 26%
    12:00 +30°C° 0 mm 5 mps 686 mmHg 23%
    13:00 +32°C° 0 mm 6 mps 686 mmHg 21%
    14:00 +32°C° 0 mm 7 mps 686 mmHg 20%
    15:00 +32°C° 0 mm 7 mps 686 mmHg 18%
    16:00 +29°C° 0 mm 7 mps 686 mmHg 22%
    17:00 +27°C° 0 mm 7 mps 686 mmHg 26%
    18:00 +23°C° 0 mm 7 mps 687 mmHg 29%
    19:00 +22°C° 0 mm 7 mps 687 mmHg 32%
    20:00 +20°C° 0 mm 7 mps 688 mmHg 35%
    21:00 +18°C° 0 mm 7 mps 688 mmHg 38%
    22:00 +17°C° 0 mm 6 mps 688 mmHg 38%
    23:00 +16°C° 0 mm 6 mps 689 mmHg 38%
    Show more